[[{"header":{"parameterUnit":"m.s-1","parameterCategory":1,"la1":30.2992,"la2":30.254,"lo1":-89.0895,"lo2":-89.0443,"dy":0.0025,"dx":0.0025,"nx":19,"ny":19,"refTime":"2026-03-21T09:00:00:Z","depth":0,"parameterNumber":2,"parameterNumberName":"U-component_of_WINDS"},"data":[0,0,0,4.3289,4.3295,4.3597,4.3598,4.3981,4.3984,0,0,0,0,0,0,0,0,0,0,0,4.3197,4.3199,4.3288,4.3296,4.3597,4.3598,4.398,4.3984,0,0,0,0,0,0,0,0,0,0,0,4.3195,4.3198,4.3201,4.3297,4.3597,4.3598,4.3979,4.3753,0,0,0,0,0,0,0,0,0,0,4.3461,4.3373,4.3198,4.3202,4.3298,4.3596,4.3598,4.3742,4.3767,4.3842,0,4.3907,0,4.3951,4.4009,4.4011,0,0,0,4.3298,4.3352,4.3436,4.3202,4.3301,4.3596,4.3462,4.3756,4.3784,4.3875,4.3913,4.3927,4.3958,4.4012,4.4014,4.4432,4.4434,0,0,4.3282,4.325,4.3416,4.3454,4.3406,4.3452,4.3471,4.3773,4.3813,4.3914,4.3936,4.3964,4.4014,4.4017,4.443,4.4433,0,0,0,4.3232,4.3238,4.3314,4.3438,4.3492,4.3461,4.3483,4.3799,4.3827,4.394,4.3969,4.4016,4.4021,4.4429,4.4431,4.4488,0,0,0,4.3222,4.3209,4.3307,4.3291,4.3487,4.365,4.3502,4.3806,4.3841,4.3967,4.4017,4.4025,4.4427,4.443,4.4482,4.452,0,0,0,4.3178,4.3204,4.3246,4.3288,4.3416,4.3645,4.369,4.3814,4.3858,4.4011,4.4026,4.4425,4.4429,4.4477,4.4512,4.4618,0,0,0,4.3122,4.3296,4.3247,4.3452,4.3414,4.3678,4.3689,4.3888,4.4026,4.4018,4.4427,4.4431,4.4475,4.4507,4.4612,4.47,4.4734,0,0,4.3323,4.3319,4.3442,4.3407,4.3671,4.3635,4.3909,4.4066,4.4112,4.4323,4.4334,4.4484,4.4511,4.4617,4.4941,4.4968,0,0,0,4.3495,4.3582,4.3659,4.3788,4.3911,4.4019,4.4137,4.4195,4.4376,4.4213,4.4554,4.4571,4.4634,4.4678,4.4701,4.4755,4.445,4.445,4.4449,4.3734,4.3779,4.3985,4.4066,4.4191,4.4309,4.4414,4.4513,4.4526,4.4605,4.4667,4.4858,4.4908,4.4925,4.4982,4.472,4.472,4.472,4.472,4.4031,4.4161,4.417,4.4372,4.4419,4.459,4.4711,4.4713,4.4879,4.4816,4.4874,4.4799,4.4953,4.5005,4.4725,4.4724,4.4724,4.4723,4.4723,4.419,4.426,4.4326,4.4514,4.4653,4.4731,4.4888,4.4927,4.4965,4.5023,4.5091,4.509,4.5091,4.5053,4.5053,4.5054,4.5054,4.5055,4.5055,4.4329,4.4401,4.4528,4.4671,4.4756,4.4874,4.4994,4.508,4.5184,4.52,4.5201,4.5203,4.496,4.4897,4.5066,4.5064,4.5063,4.5062,4.5061,4.4608,4.4551,4.4746,4.4832,4.5001,4.5135,4.5182,4.5353,4.5429,4.5505,4.5496,4.531,4.5309,4.5291,4.5239,4.5486,4.5486,4.5486,4.5486,4.4741,4.4743,4.495,4.5083,4.5219,4.528,4.5499,4.5593,4.5681,4.5731,4.5702,4.5636,4.5616,4.5627,4.5602,4.5553,4.5875,4.5876,4.5876,4.4914,4.4931,4.5109,4.5192,4.5327,4.5441,4.5647,4.58,4.5889,4.5893,4.5771,4.5754,4.5649,4.5613,4.5612,4.5572,4.5484,0,0]},{"header":{"parameterUnit":"m.s-1","parameterCategory":1,"la1":30.2992,"la2":30.254,"lo1":-89.0895,"lo2":-89.0443,"dy":0.0025,"dx":0.0025,"nx":19,"ny":19,"refTime":"2026-03-21T09:00:00:Z","depth":0,"parameterNumber":3,"parameterNumberName":"V-component_of_WINDS"},"data":[0,0,0,2.6233,2.6237,2.6421,2.6422,2.6655,2.6657,0,0,0,0,0,0,0,0,0,0,0,2.6178,2.6179,2.6233,2.6237,2.6421,2.6422,2.6654,2.6657,0,0,0,0,0,0,0,0,0,0,0,2.6177,2.6179,2.6181,2.6238,2.6421,2.6422,2.6654,2.6516,0,0,0,0,0,0,0,0,0,0,2.6337,2.6285,2.6178,2.6181,2.6239,2.6421,2.6422,2.6509,2.6524,2.657,0,2.6611,0,2.6638,2.6672,2.6673,0,0,0,2.6238,2.6273,2.6323,2.6181,2.6241,2.6421,2.6338,2.6517,2.6535,2.659,2.6615,2.6623,2.6641,2.6673,2.6675,2.6938,2.6939,0,0,2.6228,2.621,2.6311,2.6334,2.6307,2.6332,2.6344,2.6528,2.6553,2.6615,2.6629,2.6645,2.6675,2.6677,2.6937,2.6938,0,0,0,2.6198,2.6203,2.6249,2.6325,2.6358,2.6338,2.6351,2.6545,2.6562,2.6631,2.6648,2.6676,2.6679,2.6936,2.6937,2.698,0,0,0,2.6192,2.6186,2.6245,2.6236,2.6355,2.6454,2.6364,2.6549,2.657,2.6647,2.6676,2.6681,2.6934,2.6937,2.6976,2.7004,0,0,0,2.6166,2.6183,2.6209,2.6234,2.6313,2.6452,2.6479,2.6554,2.658,2.6673,2.6682,2.6933,2.6936,2.6973,2.6998,2.7068,0,0,0,2.6133,2.6245,2.6209,2.6341,2.6311,2.6477,2.6478,2.6602,2.6686,2.6678,2.6935,2.6937,2.6972,2.6995,2.7064,2.7124,2.7147,0,0,2.6265,2.626,2.6339,2.6312,2.648,2.645,2.6623,2.6717,2.6742,2.6871,2.6877,2.6978,2.6998,2.7067,2.7283,2.7301,0,0,0,2.6375,2.6431,2.6479,2.6559,2.6633,2.6698,2.6767,2.6802,2.6912,2.6805,2.7022,2.7035,2.7076,2.7105,2.7121,2.7158,2.695,2.695,2.6949,2.6537,2.6562,2.6693,2.674,2.6817,2.6886,2.6951,2.7009,2.7012,2.7062,2.7101,2.7229,2.7263,2.7275,2.7313,2.7134,2.7135,2.7135,2.7135,2.6733,2.6816,2.6816,2.6944,2.6969,2.7076,2.7146,2.7144,2.7247,2.7202,2.724,2.719,2.7294,2.7329,2.7138,2.7138,2.7137,2.7137,2.7137,2.6842,2.6887,2.6926,2.7043,2.713,2.7172,2.7271,2.729,2.7309,2.7346,2.7389,2.7388,2.739,2.7365,2.7365,2.7366,2.7366,2.7366,2.7367,2.6941,2.6984,2.7065,2.7152,2.7205,2.7277,2.7345,2.7398,2.7461,2.7467,2.7467,2.7464,2.73,2.7258,2.7374,2.7373,2.7372,2.7371,2.737,2.7131,2.7091,2.7216,2.7269,2.7371,2.7456,2.7478,2.7583,2.7628,2.7676,2.7665,2.754,2.7537,2.7525,2.7491,2.7659,2.7659,2.7659,2.7659,2.7224,2.7224,2.7356,2.7439,2.7522,2.7555,2.7694,2.7748,2.7797,2.7826,2.7804,2.776,2.7747,2.7752,2.7735,2.7703,2.7922,2.7922,2.7923,2.7342,2.7351,2.7467,2.7514,2.7596,2.7664,2.7796,2.789,2.7937,2.7934,2.785,2.7839,2.7768,2.7743,2.7739,2.7712,2.7655,0,0]}]]